TimeCDT,TemperatureF,Dew PointF,Humidity,Sea Level PressureIn,VisibilityMPH,Wind Direction,Wind SpeedMPH,Gust SpeedMPH,PrecipitationIn,Events,Conditions,WindDirDegrees,DateUTC
12:15 AM,33.8,30.2,87,30.10,10.0,Calm,Calm,-,N/A,,Overcast,0,2012-10-31 05:15:00
12:35 AM,33.8,28.4,81,30.09,10.0,Calm,Calm,-,N/A,,Overcast,0,2012-10-31 05:35:00
12:55 AM,33.8,30.2,87,30.08,10.0,Calm,Calm,-,N/A,,Overcast,0,2012-10-31 05:55:00
1:15 AM,33.8,30.2,87,30.08,10.0,Calm,Calm,-,N/A,,Overcast,0,2012-10-31 06:15:00
1:35 AM,33.8,28.4,81,30.08,10.0,Calm,Calm,-,N/A,,Overcast,0,2012-10-31 06:35:00
1:55 AM,33.8,30.2,87,30.08,10.0,Calm,Calm,-,N/A,,Overcast,0,2012-10-31 06:55:00
2:15 AM,30.2,26.6,86,30.07,10.0,Calm,Calm,-,N/A,,Mostly Cloudy,0,2012-10-31 07:15:00
2:35 AM,30.2,26.6,86,30.07,10.0,Calm,Calm,-,N/A,,Mostly Cloudy,0,2012-10-31 07:35:00
2:55 AM,30.2,26.6,86,30.07,10.0,ESE,3.5,-,N/A,,Scattered Clouds,110,2012-10-31 07:55:00
3:15 AM,30.2,26.6,86,30.06,10.0,SE,3.5,-,N/A,,Clear,130,2012-10-31 08:15:00
3:35 AM,30.2,26.6,86,30.06,10.0,Calm,Calm,-,N/A,,Clear,0,2012-10-31 08:35:00
3:55 AM,30.2,24.8,80,30.06,10.0,Calm,Calm,-,N/A,,Clear,0,2012-10-31 08:55:00
4:15 AM,30.2,26.6,86,30.05,10.0,Calm,Calm,-,N/A,,Clear,0,2012-10-31 09:15:00
4:35 AM,28.4,24.8,86,30.05,10.0,Calm,Calm,-,N/A,,Clear,0,2012-10-31 09:35:00
4:55 AM,28.4,24.8,86,30.04,10.0,Calm,Calm,-,N/A,,Clear,0,2012-10-31 09:55:00
5:15 AM,28.4,24.8,86,30.04,10.0,Calm,Calm,-,N/A,,Scattered Clouds,0,2012-10-31 10:15:00
5:35 AM,28.4,24.8,86,30.04,10.0,Calm,Calm,-,N/A,,Mostly Cloudy,0,2012-10-31 10:35:00
5:55 AM,28.4,24.8,86,30.04,10.0,Calm,Calm,-,N/A,,Overcast,0,2012-10-31 10:55:00
6:15 AM,28.4,24.8,86,30.05,10.0,Calm,Calm,-,N/A,,Overcast,0,2012-10-31 11:15:00
6:35 AM,30.2,26.6,86,30.04,10.0,Calm,Calm,-,N/A,,Overcast,0,2012-10-31 11:35:00
6:55 AM,30.2,26.6,86,30.04,10.0,Calm,Calm,-,N/A,,Overcast,0,2012-10-31 11:55:00
7:15 AM,30.2,28.4,93,30.04,10.0,Calm,Calm,-,N/A,,Overcast,0,2012-10-31 12:15:00
7:35 AM,30.2,28.4,93,30.03,10.0,Calm,Calm,-,N/A,,Overcast,0,2012-10-31 12:35:00
7:55 AM,30.2,28.4,93,30.03,10.0,Calm,Calm,-,N/A,,Overcast,0,2012-10-31 12:55:00
8:15 AM,30.2,28.4,93,30.03,10.0,Calm,Calm,-,N/A,,Overcast,0,2012-10-31 13:15:00
8:35 AM,32.0,28.4,87,30.02,10.0,Calm,Calm,-,N/A,,Overcast,0,2012-10-31 13:35:00
8:55 AM,33.8,28.4,81,30.02,10.0,Calm,Calm,-,N/A,,Overcast,0,2012-10-31 13:55:00
9:15 AM,33.8,30.2,87,30.02,10.0,Calm,Calm,-,N/A,Rain,Light Rain,0,2012-10-31 14:15:00
9:35 AM,33.8,26.6,75,30.02,10.0,SSE,3.5,-,N/A,,Overcast,160,2012-10-31 14:35:00
9:55 AM,35.6,26.6,70,30.01,10.0,South,6.9,-,N/A,,Overcast,170,2012-10-31 14:55:00
10:15 AM,37.4,26.6,65,30.01,10.0,South,8.1,-,N/A,,Overcast,170,2012-10-31 15:15:00
10:35 AM,37.4,28.4,70,30.00,10.0,South,8.1,-,N/A,,Overcast,180,2012-10-31 15:35:00
10:55 AM,39.2,28.4,65,30.00,10.0,South,8.1,-,N/A,,Mostly Cloudy,180,2012-10-31 15:55:00
11:20 AM,42.8,30.2,61,30.01,10.0,SSW,6.9,-,N/A,,Overcast,200,2012-10-31 16:20:00
11:35 AM,42.8,28.4,57,30.00,10.0,South,3.5,-,N/A,,Overcast,190,2012-10-31 16:35:00
11:55 AM,44.6,30.2,57,29.99,10.0,South,8.1,-,N/A,,Mostly Cloudy,180,2012-10-31 16:55:00
12:15 PM,46.4,28.4,50,30.00,10.0,South,9.2,-,N/A,,Mostly Cloudy,190,2012-10-31 17:15:00
12:35 PM,46.4,30.2,53,29.98,10.0,South,8.1,-,N/A,,Overcast,190,2012-10-31 17:35:00
12:55 PM,46.4,30.2,53,29.98,10.0,SSW,6.9,-,N/A,,Overcast,210,2012-10-31 17:55:00
1:20 PM,46.4,30.2,53,29.97,10.0,Calm,Calm,-,N/A,,Overcast,0,2012-10-31 18:20:00
1:35 PM,46.4,30.2,53,29.97,10.0,Calm,Calm,-,N/A,,Overcast,0,2012-10-31 18:35:00
2:15 PM,46.4,30.2,53,29.95,10.0,SW,5.8,-,N/A,,Overcast,220,2012-10-31 19:15:00
2:35 PM,48.2,30.2,50,29.95,10.0,Calm,Calm,-,N/A,,Mostly Cloudy,0,2012-10-31 19:35:00
2:55 PM,48.2,30.2,50,29.94,10.0,South,8.1,-,N/A,,Scattered Clouds,190,2012-10-31 19:55:00
3:15 PM,48.2,32.0,54,29.93,10.0,SSW,8.1,-,N/A,,Mostly Cloudy,210,2012-10-31 20:15:00
3:35 PM,48.2,33.8,58,29.93,10.0,SSW,6.9,-,N/A,,Mostly Cloudy,210,2012-10-31 20:35:00
3:55 PM,48.2,33.8,58,29.93,10.0,SSW,8.1,-,N/A,,Overcast,210,2012-10-31 20:55:00
4:15 PM,48.2,35.6,62,29.93,10.0,SW,8.1,-,N/A,,Mostly Cloudy,220,2012-10-31 21:15:00
4:35 PM,48.2,30.2,50,29.93,10.0,WSW,8.1,-,N/A,,Overcast,240,2012-10-31 21:35:00
4:55 PM,48.2,30.2,50,29.94,10.0,West,9.2,-,N/A,,Overcast,260,2012-10-31 21:55:00
5:15 PM,46.4,32.0,57,29.94,10.0,West,6.9,-,N/A,,Overcast,270,2012-10-31 22:15:00
5:35 PM,46.4,32.0,57,29.94,10.0,West,6.9,-,N/A,,Overcast,270,2012-10-31 22:35:00
5:55 PM,44.6,33.8,66,29.94,10.0,Calm,Calm,-,N/A,,Overcast,0,2012-10-31 22:55:00
6:15 PM,44.6,33.8,66,29.95,10.0,Calm,Calm,-,N/A,,Overcast,0,2012-10-31 23:15:00
6:35 PM,44.6,33.8,66,29.96,10.0,Calm,Calm,-,N/A,Rain,Light Rain,0,2012-10-31 23:35:00
6:55 PM,42.8,33.8,70,29.96,10.0,Calm,Calm,-,N/A,,Overcast,0,2012-10-31 23:55:00
7:15 PM,42.8,35.6,76,29.97,10.0,NW,8.1,-,N/A,,Overcast,310,2012-11-01 00:15:00
7:35 PM,42.8,33.8,70,29.97,10.0,NW,10.4,-,N/A,,Overcast,320,2012-11-01 00:35:00
7:55 PM,41.0,33.8,76,29.97,10.0,NW,10.4,-,N/A,,Overcast,320,2012-11-01 00:55:00
8:15 PM,39.2,33.8,81,29.97,10.0,NW,10.4,-,N/A,,Overcast,320,2012-11-01 01:15:00
8:35 PM,39.2,33.8,81,29.98,10.0,NW,11.5,17.3,N/A,,Overcast,320,2012-11-01 01:35:00
8:55 PM,39.2,33.8,81,29.98,10.0,NNW,13.8,18.4,N/A,,Overcast,330,2012-11-01 01:55:00
9:15 PM,39.2,33.8,81,29.98,10.0,NNW,13.8,-,N/A,,Overcast,340,2012-11-01 02:15:00
9:35 PM,39.2,33.8,81,29.99,10.0,NNW,17.3,-,N/A,,Overcast,340,2012-11-01 02:35:00
9:55 PM,39.2,33.8,81,30.00,10.0,North,19.6,-,N/A,,Overcast,350,2012-11-01 02:55:00
10:15 PM,37.4,33.8,87,30.00,10.0,North,18.4,25.3,N/A,,Overcast,350,2012-11-01 03:15:00
10:35 PM,37.4,33.8,87,30.00,10.0,NNW,17.3,-,N/A,,Overcast,340,2012-11-01 03:35:00
10:55 PM,37.4,33.8,87,30.01,10.0,NNW,16.1,24.2,N/A,,Overcast,340,2012-11-01 03:55:00
11:15 PM,37.4,33.8,87,30.01,10.0,NNW,18.4,-,N/A,,Overcast,340,2012-11-01 04:15:00
11:35 PM,37.4,33.8,87,30.01,10.0,NNW,13.8,-,N/A,,Overcast,340,2012-11-01 04:35:00
11:55 PM,37.4,33.8,87,30.01,10.0,NNW,16.1,-,N/A,,Overcast,340,2012-11-01 04:55:00